Location: Vihti�l�
(61.3833°N, 23.0667°E)
Time: 05:14:08
(UTC+00:00)

USA 306 - Pass Details

Date: 29 November 2020
Orbit: 568 x 576 km, 54.0° (Epoch: 11 January)

Event Time Altitude Azimuth Distance (km) Brightness Sun altitude
Exits shadow 04:12:13 25° 219° (SW) 1,183 4.2 -19.3°
Maximum altitude 04:13:26 29° 190° (S) 1,068 4.2 -19.1°
Drops below altitude 10° 04:17:10 10° 129° (SE) 1,891 6.5 -18.7°
Sets 04:19:37 0° 119° (ESE) 2,789 7.8 -18.4°
